Lid_Strength_Index
2 2 2 1 2 2 2 2 3 4 4 3 2 2 3 4 4 4 1 -1 3 4 3 2 2 4 4 5 8 5 5 5 6 7 8 8 9 9 10 10 12 11 11 11 9 11 13 5 5 8 6 4 4 4
2 2 2 2 1 2 2 2 3 2 2 3 3 3 3 4 4 4 3 2 2 3 3 1 1 1 2 2 5 4 5 5 5 6 6 9 10 8 10 11 8 11 9 10 8 10 5 4 5 4 3 4 4 4
2 2 2 2 1 1 2 2 2 3 3 3 3 3 3 3 4 5 3 2 2 3 3 3 3 1 -0 0 0 6 4 4 4 4 6 6 9 9 12 8 7 6 5 7 6 5 5 4 4 3 3 3 3 3
3 2 2 2 2 1 1 2 3 3 3 3 3 3 3 3 4 5 3 2 3 3 6 4 1 2 0 -0 1 1 2 2 2 3 5 5 6 4 7 6 6 6 6 7 7 5 4 4 4 3 3 2 3 2
3 2 2 2 2 2 1 1 2 3 3 2 2 3 3 3 4 4 2 2 3 4 6 4 2 1 1 0 1 1 1 3 4 5 5 6 5 5 4 5 6 5 6 7 9 5 6 6 3 3 3 3 3 3
3 2 2 2 2 2 2 2 2 2 3 3 3 3 3 3 5 2 3 1 3 3 4 6 2 2 2 2 2 2 2 2 3 4 5 5 4 5 6 8 5 4 3 3 5 3 3 3 2 2 3 3 2 2
3 3 2 2 2 2 3 3 2 2 2 3 4 3 3 3 4 4 5 5 6 2 4 6 5 3 2 3 2 2 1 3 3 4 5 4 5 4 6 8 5 3 3 3 2 2 4 3 4 2 2 2 2 2
3 3 3 2 2 2 2 2 2 2 2 2 3 4 3 3 4 4 2 4 4 2 3 6 6 4 2 4 4 2 4 3 3 4 4 5 5 4 7 4 4 3 3 3 3 2 2 2 2 2 2 2 3 3
2 3 3 2 2 2 2 2 2 2 2 2 3 4 3 3 3 2 4 3 1 2 6 5 8 7 2 3 3 3 3 6 4 5 5 4 6 8 5 5 4 3 3 4 3 3 3 3 3 2 3 2 3 3
2 2 3 2 2 2 3 2 2 3 3 2 2 2 5 3 3 1 1 3 3 3 3 7 4 7 4 4 4 5 4 6 7 6 4 6 7 4 3 3 3 3 3 3 3 4 3 4 3 3 3 2 2 2
1 2 2 2 2 2 2 2 3 3 4 2 2 4 2 3 3 3 4 5 5 6 5 5 5 6 3 6 6 4 6 6 8 6 6 7 7 5 3 3 3 2 2 2 2 2 2 2 2 2 2 2 2 2
1 1 2 2 2 2 2 2 3 3 2 4 5 2 1 3 4 6 7 5 7 7 5 6 5 5 3 3 5 5 6 6 9 5 7 8 5 4 3 3 3 2 2 2 2 2 2 2 2 2 2 2 2 1
1 1 1 1 1 2 2 3 3 3 3 1 4 4 5 5 10 9 10 8 8 6 5 5 6 4 4 3 5 5 7 8 4 7 8 6 5 4 3 3 3 2 2 2 2 2 2 2 2 2 2 2 1 2
0 1 1 1 1 1 1 2 3 3 3 5 6 12 8 9 8 7 7 6 4 4 5 5 6 5 4 5 5 7 6 5 8 10 9 5 5 4 3 2 2 2 2 2 3 2 2 2 2 2 2 2 2 2
0 0 0 1 0 0 1 2 3 2 4 6 6 11 8 6 5 5 4 4 3 3 4 4 4 5 6 6 6 6 7 9 8 8 6 5 4 3 3 3 3 2 2 2 2 2 2 2 2 2 2 1 1 1
-0 0 1 1 0 0 1 1 2 3 5 7 6 7 5 6 5 5 4 4 3 3 3 3 5 6 6 6 7 8 8 9 8 5 5 4 4 3 3 2 2 2 2 2 2 2 2 2 2 2 1 1 1 1
0 2 0 0 0 1 1 2 3 6 8 9 8 5 5 5 5 4 3 3 2 4 6 5 7 7 5 7 7 6 7 6 5 5 4 4 4 3 3 3 2 2 2 2 2 2 2 1 1 2 2 1 1 1
1 -0 -0 0 -0 1 3 3 5 6 9 7 7 5 4 3 4 4 3 2 3 4 4 6 4 7 7 8 7 5 4 4 3 4 4 3 3 2 2 2 2 2 2 2 2 2 1 2 2 2 1 1 1 1
-0 -1 -0 -0 1 3 5 5 4 7 7 7 6 4 4 4 3 3 3 3 2 2 3 4 7 7 6 5 5 4 3 4 4 4 3 2 2 2 2 2 2 2 2 2 2 2 2 1 2 2 2 1 2 2
-1 -1 -0 -0 -0 3 5 5 2 5 8 7 6 6 5 4 3 3 3 3 3 4 5 6 6 5 5 3 3 3 3 3 3 4 4 3 2 2 2 2 2 2 2 1 2 6 2 2 1 1 1 2 3 3
-0 -0 -0 -1 1 2 3 4 4 4 6 7 6 6 6 4 5 4 4 3 4 5 6 4 4 3 2 2 2 2 2 2 3 3 3 4 2 2 2 2 1 2 2 2 2 3 4 2 2 1 2 3 2 3
1 -0 1 1 3 3 4 3 4 3 4 6 6 6 7 7 6 5 4 5 5 4 4 3 3 3 3 2 2 1 2 1 1 2 5 4 3 3 2 2 2 2 2 2 1 2 3 2 2 2 3 4 5 4
-0 0 2 2 5 5 6 2 5 4 6 6 6 7 8 7 6 4 6 5 5 3 2 2 2 2 2 2 1 1 1 2 2 2 2 2 2 2 2 2 1 2 2 2 2 3 3 6 5 4 4 4 4 4
0 3 5 6 5 7 4 6 4 5 5 6 6 8 7 7 5 6 8 6 5 4 3 2 2 3 2 2 3 2 2 1 2 2 1 2 2 2 1 1 2 2 3 3 3 3 3 4 7 4 5 5 5 5
7 7 6 9 4 6 7 7 6 6 7 6 7 7 6 4 7 8 8 7 5 5 4 3 3 3 4 3 3 2 1 1 2 2 2 1 2 2 2 2 3 3 3 3 4 4 4 4 4 5 5 5 6 6
9 6 8 6 6 7 6 8 7 7 6 7 6 5 4 6 8 8 6 5 5 4 4 3 3 4 4 3 3 2 2 1 2 3 2 1 2 2 3 3 4 4 2 3 3 4 4 5 5 5 5 6 9 6
9 7 4 2 4 4 5 5 5 6 7 7 6 6 6 9 8 6 3 3 3 2 1 2 2 2 3 3 2 2 1 1 1 1 1 1 2 2 2 3 3 3 2 3 3 4 4 4 5 5 5 4 4 4
5 5 7 5 5 4 6 6 6 7 6 5 5 7 8 8 7 3 3 2 1 1 1 1 1 1 2 1 2 2 1 2 1 1 2 2 2 2 2 2 3 9 3 3 3 3 3 4 4 4 4 4 4 3
6 4 4 7 6 6 6 6 6 4 3 4 6 7 6 3 2 3 2 2 1 1 2 2 2 1 1 1 2 1 2 1 3 4 5 5 4 3 2 2 2 2 2 3 11 7 3 3 3 3 3 3 3 2
6 4 6 6 7 8 5 4 4 3 3 3 2 3 4 3 2 1 1 1 2 2 1 1 1 2 3 3 3 2 1 2 2 3 4 4 3 1 1 1 2 2 2 2 2 3 9 4 5 3 3 3 3 4
4 5 7 6 7 5 4 3 3 3 3 3 3 4 5 3 2 1 1 1 1 1 1 2 2 1 2 3 3 3 3 1 0 0 0 1 1 1 1 1 1 1 2 2 2 2 2 2 3 3 4 4 4 5
6 7 7 8 7 4 3 4 5 5 4 5 5 4 4 5 5 3 1 1 2 2 4 2 2 2 1 0 0 2 7 1 0 0 0 -0 0 1 1 2 1 2 2 3 2 2 3 3 3 4 5 5 4 4
5 5 5 6 6 6 5 6 6 6 6 6 6 5 5 5 8 3 0 0 1 1 1 1 1 0 0 0 1 1 4 3 7 9 9 9 10 6 2 2 2 2 2 3 3 2 3 4 4 4 4 4 4 4